Location: Fenn
(52.1430°N, 112.7440°W)
Time: 13:53:57
(UTC+00:00)

BlueWalker 3 - Pass Details

Date: 15 June 2023
Orbit: 492 x 508 km, 53.2° (Epoch: 21 September)

Event Time Altitude Azimuth Distance (km) Brightness Sun altitude
Rises 04:33:17 0° 287° (WNW) 2,579 6.6 -5.1°
Reaches altitude 10° 04:35:44 10° 273° (W) 1,697 5.3 -5.4°
Maximum altitude 04:38:52 24° 218° (SW) 1,062 3.5 -5.7°
Drops below altitude 10° 04:41:59 10° 163° (SSE) 1,699 4.0 -6.0°
Enters shadow 04:42:44 - 158° (SSE) 1,953 4.3 -6.1°
